Location: Brown Observing Site
(43.4354°N, 116.3366°W)
Time: 23:42:00
(UTC-06:00)

Envisat - Pass Details

Date: 21 March 2019
Orbit: 764 x 766 km, 98.2° (Epoch: 25 April)

Event Time Altitude Azimuth Distance (km) Brightness Sun altitude
Rises 21:35:32 0° 208° (SSW) 3,219 6.4 -18.1°
Reaches altitude 10° 21:38:36 10° 228° (SW) 2,298 5.8 -18.6°
Maximum altitude 21:41:56 18° 269° (W) 1,837 5.8 -19.1°
Drops below altitude 10° 21:45:17 10° 311° (NW) 2,310 6.5 -19.7°
Sets 21:48:23 0° 331° (NNW) 3,241 7.0 -20.2°
